When you browse on this site, cookies collect data to enhance your experience and personalize the content and advertising you see.
Visit our Privacy Policy to learn more. By continuing to use the site, you agree to this use of cookies and data.
  • In Schweiz
  • Länderverzeichnis
  • Für 7 Tage
  • Wassertemperatur
  • Wetterkarte
  • Widgets
  • user-avatar
    Anmelden

    Stündliche Wetter Herceg Novi

    Heute, 12 November, Dienstag

    Zeit Temperatur Niederschläge Wind Luftdruck Luftfeuchtigkeit
    00:00 +12°C° 0 mm 3 m/S 756 mmHg 72%
    01:00 +13°C° 0 mm 4 m/S 756 mmHg 71%
    02:00 +13°C° 0.1 mm 4 m/S 755 mmHg 70%
    03:00 +13°C° 0.1 mm 5 m/S 754 mmHg 69%
    04:00 +13°C° 0.1 mm 5 m/S 753 mmHg 68%
    05:00 +14°C° 0.1 mm 6 m/S 752 mmHg 70%
    06:00 +14°C° 0.1 mm 7 m/S 752 mmHg 72%
    07:00 +13°C° 0 mm 9 m/S 751 mmHg 76%
    08:00 +15°C° 0 mm 9 m/S 751 mmHg 73%
    09:00 +16°C° 0 mm 9 m/S 750 mmHg 71%
    10:00 +18°C° 0 mm 9 m/S 749 mmHg 68%
    11:00 +18°C° 0.4 mm 8 m/S 749 mmHg 70%
    12:00 +18°C° 0.4 mm 8 m/S 749 mmHg 71%
    13:00 +19°C° 0 mm 10 m/S 750 mmHg 69%
    14:00 +18°C° 3.9 mm 11 m/S 750 mmHg 76%
    15:00 +17°C° 3.9 mm 12 m/S 750 mmHg 84%
    16:00 +15°C° 3.9 mm 12 m/S 750 mmHg 91%
    17:00 +15°C° 2.8 mm 13 m/S 750 mmHg 92%
    18:00 +14°C° 2.8 mm 13 m/S 750 mmHg 92%
    19:00 +14°C° 2.8 mm 13 m/S 750 mmHg 92%
    20:00 +14°C° 0.9 mm 12 m/S 750 mmHg 93%
    21:00 +14°C° 0.9 mm 11 m/S 750 mmHg 94%
    22:00 +14°C° 0.9 mm 10 m/S 750 mmHg 95%
    23:00 +13°C° 1.3 mm 9 m/S 750 mmHg 95%

    Morgen, 13 November, Mittwoch

    Zeit Temperatur Niederschläge Wind Luftdruck Luftfeuchtigkeit
    00:00 +13°C° 1.3 mm 9 m/S 750 mmHg 94%
    01:00 +13°C° 1.3 mm 9 m/S 750 mmHg 94%
    02:00 +13°C° 0.8 mm 9 m/S 749 mmHg 94%
    03:00 +12°C° 0.8 mm 8 m/S 748 mmHg 93%
    04:00 +12°C° 0.8 mm 8 m/S 748 mmHg 93%
    05:00 +12°C° 2 mm 9 m/S 747 mmHg 93%
    06:00 +12°C° 2 mm 10 m/S 747 mmHg 93%
    07:00 +13°C° 2 mm 11 m/S 746 mmHg 92%
    08:00 +13°C° 3.4 mm 12 m/S 747 mmHg 93%
    09:00 +14°C° 3.4 mm 13 m/S 747 mmHg 94%
    10:00 +15°C° 3.4 mm 15 m/S 748 mmHg 95%
    11:00 +15°C° 3.1 mm 13 m/S 748 mmHg 95%
    12:00 +15°C° 3.1 mm 12 m/S 748 mmHg 95%
    13:00 +16°C° 3.1 mm 11 m/S 748 mmHg 95%
    14:00 +16°C° 3.2 mm 10 m/S 749 mmHg 96%
    15:00 +16°C° 3.2 mm 9 m/S 749 mmHg 96%
    16:00 +16°C° 3.2 mm 8 m/S 749 mmHg 97%
    17:00 +15°C° 1.9 mm 7 m/S 750 mmHg 96%
    18:00 +15°C° 1.9 mm 7 m/S 751 mmHg 96%
    19:00 +15°C° 1.9 mm 6 m/S 751 mmHg 95%
    20:00 +15°C° 0.9 mm 5 m/S 752 mmHg 95%
    21:00 +15°C° 0.9 mm 4 m/S 752 mmHg 95%
    22:00 +14°C° 0.9 mm 3 m/S 753 mmHg 95%
    23:00 +14°C° 0.2 mm 3 m/S 753 mmHg 94%

    übermorgen, 14 November, Donnerstag

    Zeit Temperatur Niederschläge Wind Luftdruck Luftfeuchtigkeit
    00:00 +15°C° 0.2 mm 2 m/S 753 mmHg 94%
    01:00 +14°C° 0.2 mm 1 m/S 754 mmHg 93%
    02:00 +14°C° 0.1 mm 1 m/S 754 mmHg 93%
    03:00 +14°C° 0.1 mm 1 m/S 754 mmHg 93%
    04:00 +14°C° 0.1 mm 1 m/S 754 mmHg 94%
    05:00 +14°C° 0 mm 2 m/S 754 mmHg 94%
    06:00 +14°C° 0 mm 2 m/S 754 mmHg 94%
    07:00 +13°C° 0 mm 3 m/S 754 mmHg 94%
    08:00 +14°C° 0 mm 3 m/S 754 mmHg 90%
    09:00 +16°C° 0 mm 3 m/S 754 mmHg 86%
    10:00 +17°C° 0 mm 2 m/S 754 mmHg 83%
    11:00 +17°C° 0.2 mm 3 m/S 754 mmHg 82%
    12:00 +17°C° 0.2 mm 3 m/S 754 mmHg 81%
    13:00 +18°C° 0.2 mm 3 m/S 754 mmHg 80%
    14:00 +17°C° 0.1 mm 3 m/S 754 mmHg 83%
    15:00 +16°C° 0.1 mm 3 m/S 754 mmHg 86%
    16:00 +14°C° 0.1 mm 4 m/S 754 mmHg 89%
    17:00 +14°C° 0.1 mm 4 m/S 755 mmHg 90%
    18:00 +13°C° 0.1 mm 4 m/S 755 mmHg 91%
    19:00 +12°C° 0.1 mm 4 m/S 756 mmHg 92%
    20:00 +12°C° 0.2 mm 4 m/S 756 mmHg 92%
    21:00 +12°C° 0.2 mm 4 m/S 756 mmHg 92%
    22:00 +12°C° 0.2 mm 4 m/S 757 mmHg 92%
    23:00 +12°C° 0.2 mm 4 m/S 757 mmHg 92%

    15 November, Freitag

    Zeit Temperatur Niederschläge Wind Luftdruck Luftfeuchtigkeit
    00:00 +12°C° 0.2 mm 4 m/S 757 mmHg 92%
    01:00 +12°C° 0.2 mm 4 m/S 757 mmHg 92%
    02:00 +12°C° 0.1 mm 4 m/S 757 mmHg 91%
    03:00 +12°C° 0.1 mm 4 m/S 757 mmHg 90%
    04:00 +12°C° 0.1 mm 4 m/S 757 mmHg 89%
    05:00 +12°C° 0 mm 4 m/S 757 mmHg 88%
    06:00 +12°C° 0 mm 4 m/S 757 mmHg 86%
    07:00 +12°C° 0 mm 4 m/S 757 mmHg 85%
    08:00 +14°C° 0 mm 5 m/S 757 mmHg 82%
    09:00 +15°C° 0 mm 5 m/S 757 mmHg 80%
    10:00 +16°C° 0 mm 5 m/S 757 mmHg 77%
    11:00 +17°C° 0 mm 5 m/S 757 mmHg 77%
    12:00 +17°C° 0 mm 5 m/S 757 mmHg 77%
    13:00 +17°C° 0 mm 6 m/S 757 mmHg 77%
    14:00 +17°C° 0.1 mm 6 m/S 757 mmHg 80%
    15:00 +16°C° 0.1 mm 6 m/S 757 mmHg 83%
    16:00 +16°C° 0.1 mm 6 m/S 757 mmHg 86%
    17:00 +16°C° 0.3 mm 7 m/S 758 mmHg 88%
    18:00 +15°C° 0.3 mm 7 m/S 758 mmHg 90%
    19:00 +15°C° 0.3 mm 7 m/S 758 mmHg 93%
    20:00 +15°C° 0.2 mm 7 m/S 759 mmHg 93%
    21:00 +15°C° 0.2 mm 7 m/S 759 mmHg 93%
    22:00 +15°C° 0.2 mm 7 m/S 759 mmHg 94%
    23:00 +15°C° 0.6 mm 7 m/S 759 mmHg 94%

    16 November, Samstag

    Zeit Temperatur Niederschläge Wind Luftdruck Luftfeuchtigkeit
    00:00 +15°C° 0.6 mm 7 m/S 760 mmHg 95%
    01:00 +14°C° 0.6 mm 7 m/S 760 mmHg 95%
    02:00 +15°C° 0.7 mm 6 m/S 760 mmHg 95%
    03:00 +15°C° 0.7 mm 6 m/S 760 mmHg 94%
    04:00 +15°C° 0.7 mm 6 m/S 760 mmHg 94%
    05:00 +15°C° 0.2 mm 5 m/S 760 mmHg 93%
    06:00 +15°C° 0.2 mm 5 m/S 760 mmHg 93%
    07:00 +15°C° 0.2 mm 5 m/S 760 mmHg 92%
    08:00 +16°C° 0.1 mm 5 m/S 760 mmHg 89%
    09:00 +17°C° 0.1 mm 4 m/S 760 mmHg 86%
    10:00 +18°C° 0.1 mm 4 m/S 760 mmHg 83%
    11:00 +19°C° 0 mm 4 m/S 759 mmHg 80%
    12:00 +19°C° 0 mm 4 m/S 759 mmHg 78%
    13:00 +19°C° 0 mm 3 m/S 758 mmHg 75%
    14:00 +19°C° 0 mm 3 m/S 758 mmHg 78%
    15:00 +18°C° 0 mm 3 m/S 758 mmHg 81%
    16:00 +17°C° 0 mm 3 m/S 758 mmHg 84%
    17:00 +17°C° 0 mm 4 m/S 758 mmHg 85%
    18:00 +15°C° 0 mm 4 m/S 758 mmHg 86%
    19:00 +14°C° 0 mm 4 m/S 758 mmHg 87%
    20:00 +14°C° 0.1 mm 4 m/S 758 mmHg 88%
    21:00 +14°C° 0.1 mm 4 m/S 758 mmHg 88%
    22:00 +13°C° 0.1 mm 4 m/S 758 mmHg 88%
    23:00 +13°C° 0 mm 4 m/S 757 mmHg 88%

    17 November, Sonntag

    Zeit Temperatur Niederschläge Wind Luftdruck Luftfeuchtigkeit
    00:00 +13°C° 0 mm 4 m/S 757 mmHg 88%
    01:00 +13°C° 0 mm 4 m/S 757 mmHg 88%
    02:00 +13°C° 0 mm 4 m/S 756 mmHg 87%
    03:00 +13°C° 0 mm 5 m/S 756 mmHg 85%
    04:00 +12°C° 0 mm 5 m/S 756 mmHg 84%
    05:00 +12°C° 0 mm 5 m/S 756 mmHg 82%
    06:00 +12°C° 0 mm 5 m/S 755 mmHg 80%
    07:00 +12°C° 0 mm 5 m/S 755 mmHg 79%
    08:00 +14°C° 0 mm 5 m/S 755 mmHg 74%
    09:00 +16°C° 0 mm 6 m/S 755 mmHg 68%
    10:00 +17°C° 0 mm 6 m/S 755 mmHg 63%
    11:00 +19°C° 0 mm 6 m/S 755 mmHg 63%
    12:00 +18°C° 0 mm 7 m/S 754 mmHg 64%
    13:00 +18°C° 0 mm 7 m/S 754 mmHg 64%
    14:00 +17°C° 0 mm 7 m/S 754 mmHg 67%
    15:00 +16°C° 0 mm 6 m/S 754 mmHg 70%
    16:00 +15°C° 0 mm 6 m/S 754 mmHg 73%
    17:00 +15°C° 2.8 mm 5 m/S 754 mmHg 75%
    18:00 +15°C° 2.8 mm 4 m/S 754 mmHg 76%
    19:00 +14°C° 2.8 mm 3 m/S 755 mmHg 77%
    20:00 +14°C° 5.7 mm 3 m/S 755 mmHg 83%
    21:00 +14°C° 5.7 mm 4 m/S 756 mmHg 89%
    22:00 +13°C° 5.7 mm 4 m/S 757 mmHg 95%
    23:00 +13°C° 2.1 mm 4 m/S 757 mmHg 94%
    Mehr zeigen